Time,TemperatureF,DewpointF,PressureIn,WindDirection,WindDirectionDegrees,WindSpeedMPH,WindSpeedGustMPH,Humidity,HourlyPrecipIn,Conditions,Clouds,dailyrainin,SoftwareType,DateUTC
2013-04-17 00:03:00,43.3,33.5,28.47,NNE,31,3.1,6.3,68,0.00,,---,0.00,VWS V14.00,2013-04-17 05:03:00,
2013-04-17 00:08:00,43.2,33.3,28.50,ENE,71,0.0,2.7,68,0.00,,---,0.00,VWS V14.00,2013-04-17 05:08:00,
2013-04-17 00:13:00,43.2,33.3,28.50,NE,37,4.5,5.4,68,0.00,,---,0.00,VWS V14.00,2013-04-17 05:13:00,
2013-04-17 00:18:00,43.2,33.7,28.50,North,2,3.6,4.0,69,0.00,,---,0.00,VWS V14.00,2013-04-17 05:18:00,
2013-04-17 00:23:00,43.2,33.7,28.50,NNE,21,2.2,2.7,69,0.00,,---,0.00,VWS V14.00,2013-04-17 05:23:00,
2013-04-17 00:28:00,43.2,33.7,28.50,NNE,19,4.0,4.0,69,0.00,,---,0.00,VWS V14.00,2013-04-17 05:28:00,
2013-04-17 00:33:00,43.2,33.7,28.50,North,0,3.6,4.9,69,0.00,,---,0.00,VWS V14.00,2013-04-17 05:33:00,
2013-04-17 00:38:00,43.0,33.9,28.50,NNE,19,5.8,8.1,70,0.00,,---,0.00,VWS V14.00,2013-04-17 05:38:00,
2013-04-17 00:44:00,42.8,34.1,28.50,North,9,4.9,4.9,71,0.00,,---,0.00,VWS V14.00,2013-04-17 05:44:00,
2013-04-17 00:49:00,42.8,34.1,28.50,NNE,19,2.7,4.9,71,0.00,,---,0.00,VWS V14.00,2013-04-17 05:49:00,
2013-04-17 00:54:00,42.6,34.6,28.47,North,5,3.6,5.8,73,0.00,,---,0.00,VWS V14.00,2013-04-17 05:54:00,
2013-04-17 00:59:00,42.4,34.8,28.47,North,10,4.0,4.0,74,0.00,,---,0.00,VWS V14.00,2013-04-17 05:59:00,
2013-04-17 01:04:00,42.4,34.8,28.47,North,8,2.2,2.7,74,0.00,,---,0.00,VWS V14.00,2013-04-17 06:04:00,
2013-04-17 01:09:00,42.4,34.8,28.50,NNE,28,2.2,2.7,74,0.00,,---,0.00,VWS V14.00,2013-04-17 06:09:00,
2013-04-17 01:14:00,42.4,34.8,28.50,NNE,21,0.0,0.0,74,0.00,,---,0.00,VWS V14.00,2013-04-17 06:14:00,
2013-04-17 01:19:00,42.4,35.1,28.50,North,7,2.7,3.6,75,0.00,,---,0.00,VWS V14.00,2013-04-17 06:19:00,
2013-04-17 01:24:00,42.4,35.1,28.47,NNE,18,2.2,4.9,75,0.00,,---,0.00,VWS V14.00,2013-04-17 06:24:00,
2013-04-17 01:29:00,42.4,35.1,28.47,North,357,4.9,8.7,75,0.00,,---,0.00,VWS V14.00,2013-04-17 06:29:00,
2013-04-17 01:34:00,42.4,35.4,28.47,North,11,3.1,3.6,76,0.00,,---,0.00,VWS V14.00,2013-04-17 06:34:00,
2013-04-17 01:39:00,42.4,35.4,28.47,NNE,16,2.7,4.5,76,0.00,,---,0.00,VWS V14.00,2013-04-17 06:39:00,
2013-04-17 01:44:00,42.4,35.4,28.47,North,11,3.6,3.6,76,0.00,,---,0.00,VWS V14.00,2013-04-17 06:44:00,
2013-04-17 01:49:00,42.4,35.4,28.47,North,357,3.6,4.0,76,0.00,,---,0.00,VWS V14.00,2013-04-17 06:49:00,
2013-04-17 01:55:00,42.4,35.4,28.44,NNE,25,3.6,6.3,76,0.00,,---,0.00,VWS V14.00,2013-04-17 06:55:00,
2013-04-17 02:00:00,42.4,35.8,28.44,North,6,5.4,5.8,77,0.00,,---,0.00,VWS V14.00,2013-04-17 07:00:00,
2013-04-17 02:05:00,42.4,35.8,28.44,NNE,23,3.6,3.6,77,0.00,,---,0.00,VWS V14.00,2013-04-17 07:05:00,
2013-04-17 02:10:00,42.3,35.6,28.44,North,357,5.8,5.8,77,0.00,,---,0.00,VWS V14.00,2013-04-17 07:10:00,
2013-04-17 02:15:00,42.3,35.9,28.44,North,357,2.7,3.6,78,0.00,,---,0.00,VWS V14.00,2013-04-17 07:15:00,
2013-04-17 02:20:00,42.3,35.9,28.41,NNE,21,3.6,4.0,78,0.00,,---,0.00,VWS V14.00,2013-04-17 07:20:00,
2013-04-17 02:25:00,42.3,35.9,28.41,NNE,19,5.4,5.8,78,0.00,,---,0.00,VWS V14.00,2013-04-17 07:25:00,
2013-04-17 02:30:00,42.3,35.9,28.41,NNE,17,3.6,4.9,78,0.00,,---,0.00,VWS V14.00,2013-04-17 07:30:00,
2013-04-17 02:35:00,42.3,36.2,28.41,North,353,5.4,7.6,79,0.00,,---,0.00,VWS V14.00,2013-04-17 07:35:00,
2013-04-17 02:40:00,42.3,36.2,28.41,NNE,15,3.6,5.8,79,0.00,,---,0.00,VWS V14.00,2013-04-17 07:40:00,
2013-04-17 02:45:00,42.1,36.4,28.41,North,3,2.7,5.4,80,0.00,,---,0.00,VWS V14.00,2013-04-17 07:45:00,
2013-04-17 02:50:00,42.1,36.4,28.38,NNE,32,5.4,8.7,80,0.00,,---,0.00,VWS V14.00,2013-04-17 07:50:00,
2013-04-17 02:55:00,42.1,36.7,28.38,NNE,27,4.0,7.6,81,0.00,,---,0.00,VWS V14.00,2013-04-17 07:55:00,
2013-04-17 03:00:00,42.1,37.0,28.38,NE,55,8.7,8.7,82,0.00,,---,0.00,VWS V14.00,2013-04-17 08:00:00,
2013-04-17 03:06:00,42.1,37.0,28.35,North,0,6.3,6.3,82,0.00,,---,0.00,VWS V14.00,2013-04-17 08:06:00,
2013-04-17 03:11:00,42.1,37.3,28.35,NNE,19,4.9,5.4,83,0.00,,---,0.00,VWS V14.00,2013-04-17 08:11:00,
2013-04-17 03:16:00,42.1,37.3,28.35,NNE,23,6.3,8.3,83,0.00,,---,0.00,VWS V14.00,2013-04-17 08:16:00,
2013-04-17 03:22:00,42.1,37.3,28.38,NW,317,2.2,4.0,83,0.00,,---,0.00,VWS V14.00,2013-04-17 08:22:00,
2013-04-17 03:27:00,42.1,37.3,28.38,NNE,29,0.0,0.0,83,0.00,,---,0.00,VWS V14.00,2013-04-17 08:27:00,
2013-04-17 03:32:00,42.1,37.3,28.38,North,8,4.0,4.0,83,0.00,,---,0.00,VWS V14.00,2013-04-17 08:32:00,
2013-04-17 03:37:00,42.1,37.3,28.38,NNE,17,5.8,5.8,83,0.00,,---,0.00,VWS V14.00,2013-04-17 08:37:00,
2013-04-17 03:42:00,42.1,37.3,28.38,North,10,3.1,3.6,83,0.00,,---,0.00,VWS V14.00,2013-04-17 08:42:00,
2013-04-17 03:47:00,42.1,37.3,28.38,NNE,17,8.1,8.1,83,0.00,,---,0.00,VWS V14.00,2013-04-17 08:47:00,
2013-04-17 03:52:00,42.1,37.3,28.35,North,2,4.0,5.4,83,0.00,,---,0.00,VWS V14.00,2013-04-17 08:52:00,
2013-04-17 03:57:00,42.1,37.3,28.35,North,1,5.8,5.8,83,0.00,,---,0.00,VWS V14.00,2013-04-17 08:57:00,
2013-04-17 04:02:00,42.1,37.3,28.35,North,0,0.0,0.0,83,0.00,,---,0.00,VWS V14.00,2013-04-17 09:02:00,
2013-04-17 04:07:00,42.1,37.3,28.38,NNE,32,5.8,7.6,83,0.00,,---,0.00,VWS V14.00,2013-04-17 09:07:00,
2013-04-17 04:12:00,42.1,37.3,28.38,North,0,3.6,3.6,83,0.00,,---,0.00,VWS V14.00,2013-04-17 09:12:00,
2013-04-17 04:17:00,42.1,37.3,28.38,NNE,18,7.6,7.6,83,0.00,,---,0.00,VWS V14.00,2013-04-17 09:17:00,
2013-04-17 04:23:00,41.9,37.1,28.35,North,10,2.7,5.8,83,0.00,,---,0.00,VWS V14.00,2013-04-17 09:23:00,
2013-04-17 04:28:00,41.9,37.4,28.35,West,267,5.4,5.4,84,0.00,,---,0.00,VWS V14.00,2013-04-17 09:28:00,
2013-04-17 04:33:00,41.9,37.4,28.35,WNW,288,8.7,10.1,84,0.00,,---,0.00,VWS V14.00,2013-04-17 09:33:00,
2013-04-17 04:38:00,42.1,37.9,28.41,NW,318,3.6,3.6,85,0.00,,---,0.00,VWS V14.00,2013-04-17 09:38:00,
2013-04-17 04:43:00,42.1,38.2,28.41,NNE,14,4.9,4.9,86,0.00,,---,0.00,VWS V14.00,2013-04-17 09:43:00,
2013-04-17 04:48:00,41.9,38.0,28.41,WNW,300,3.1,4.0,86,0.00,,---,0.00,VWS V14.00,2013-04-17 09:48:00,
2013-04-17 04:53:00,41.7,37.8,28.41,NNW,334,3.6,4.9,86,0.00,,---,0.00,VWS V14.00,2013-04-17 09:53:00,
2013-04-17 04:58:00,41.7,37.8,28.41,North,3,0.0,0.0,86,0.00,,---,0.00,VWS V14.00,2013-04-17 09:58:00,
2013-04-17 05:03:00,41.5,37.7,28.41,North,7,0.0,3.1,86,0.04,,---,0.04,VWS V14.00,2013-04-17 10:03:00,
2013-04-17 05:08:00,41.5,38.0,28.38,North,0,0.0,2.2,87,0.04,,---,0.04,VWS V14.00,2013-04-17 10:08:00,
2013-04-17 05:13:00,41.5,38.0,28.38,North,0,2.2,2.7,87,0.04,,---,0.04,VWS V14.00,2013-04-17 10:13:00,
2013-04-17 05:19:00,41.4,37.8,28.38,North,0,0.0,0.0,87,0.04,,---,0.04,VWS V14.00,2013-04-17 10:19:00,
2013-04-17 05:24:00,41.4,37.8,28.38,North,0,0.0,0.0,87,0.04,,---,0.04,VWS V14.00,2013-04-17 10:24:00,
2013-04-17 05:29:00,41.4,37.8,28.38,North,0,2.7,4.0,87,0.04,,---,0.04,VWS V14.00,2013-04-17 10:29:00,
2013-04-17 05:34:00,41.4,37.8,28.38,North,0,0.0,0.0,87,0.04,,---,0.04,VWS V14.00,2013-04-17 10:34:00,
2013-04-17 05:39:00,41.4,37.8,28.35,North,0,2.7,4.0,87,0.04,,---,0.04,VWS V14.00,2013-04-17 10:39:00,
2013-04-17 05:44:00,41.4,37.8,28.35,North,0,0.0,3.1,87,0.04,,---,0.04,VWS V14.00,2013-04-17 10:44:00,
2013-04-17 05:49:00,41.4,38.1,28.35,WSW,250,5.4,5.8,88,0.04,,---,0.04,VWS V14.00,2013-04-17 10:49:00,
2013-04-17 05:54:00,41.4,38.4,28.38,NW,325,0.0,3.6,89,0.04,,---,0.04,VWS V14.00,2013-04-17 10:54:00,
2013-04-17 05:59:00,41.2,38.2,28.38,NW,325,2.2,2.2,89,0.00,,---,0.04,VWS V14.00,2013-04-17 10:59:00,
2013-04-17 06:04:00,41.2,38.5,28.38,NW,319,0.0,3.1,90,0.00,,---,0.04,VWS V14.00,2013-04-17 11:04:00,
2013-04-17 06:09:00,41.2,38.5,28.38,NNW,345,2.7,4.9,90,0.08,,---,0.12,VWS V14.00,2013-04-17 11:09:00,
2013-04-17 06:15:00,41.2,38.8,28.38,NW,326,0.0,2.7,91,0.08,,---,0.12,VWS V14.00,2013-04-17 11:15:00,
2013-04-17 06:20:00,41.2,39.0,28.38,NW,326,2.7,3.1,92,0.12,,---,0.16,VWS V14.00,2013-04-17 11:20:00,
2013-04-17 06:25:00,41.0,38.9,28.38,WNW,299,3.1,5.4,92,0.12,,---,0.16,VWS V14.00,2013-04-17 11:25:00,
2013-04-17 06:30:00,41.0,39.1,28.38,NW,310,2.2,2.7,93,0.12,,---,0.16,VWS V14.00,2013-04-17 11:30:00,
2013-04-17 06:35:00,41.0,39.1,28.38,NW,313,2.7,3.1,93,0.12,,---,0.16,VWS V14.00,2013-04-17 11:35:00,
2013-04-17 06:40:00,41.0,39.4,28.38,NW,320,3.1,3.1,94,0.12,,---,0.16,VWS V14.00,2013-04-17 11:40:00,
2013-04-17 06:45:00,41.0,39.4,28.38,WNW,286,2.2,3.6,94,0.12,,---,0.16,VWS V14.00,2013-04-17 11:45:00,
2013-04-17 06:50:00,41.0,39.4,28.35,NNW,335,6.3,6.3,94,0.12,,---,0.16,VWS V14.00,2013-04-17 11:50:00,
2013-04-17 06:55:00,41.0,39.7,28.35,NW,324,3.1,4.0,95,0.12,,---,0.16,VWS V14.00,2013-04-17 11:55:00,
2013-04-17 07:00:00,41.0,39.7,28.35,NW,322,2.7,3.1,95,0.12,,---,0.16,VWS V14.00,2013-04-17 12:00:00,
2013-04-17 07:05:00,41.0,39.7,28.35,NNW,344,2.7,4.9,95,0.12,,---,0.16,VWS V14.00,2013-04-17 12:05:00,
2013-04-17 07:10:00,41.0,39.7,28.35,NNW,341,2.7,3.1,95,0.04,,---,0.16,VWS V14.00,2013-04-17 12:10:00,
2013-04-17 07:15:00,40.8,39.8,28.35,NW,321,2.7,3.6,96,0.04,,---,0.16,VWS V14.00,2013-04-17 12:15:00,
2013-04-17 07:20:00,40.8,39.8,28.35,NNW,333,0.0,4.0,96,0.00,,---,0.16,VWS V14.00,2013-04-17 12:20:00,
2013-04-17 07:26:00,40.8,39.8,28.35,NNW,338,2.2,2.2,96,0.00,,---,0.16,VWS V14.00,2013-04-17 12:26:00,
2013-04-17 07:31:00,40.8,39.8,28.35,NNW,337,2.7,3.6,96,0.00,,---,0.16,VWS V14.00,2013-04-17 12:31:00,
2013-04-17 07:36:00,40.8,40.0,28.35,North,353,5.4,5.4,97,0.00,,---,0.16,VWS V14.00,2013-04-17 12:36:00,
2013-04-17 07:41:00,40.8,40.0,28.35,NW,321,2.7,2.7,97,0.00,,---,0.16,VWS V14.00,2013-04-17 12:41:00,
2013-04-17 07:46:00,40.8,40.0,28.35,NNW,348,3.6,3.6,97,0.00,,---,0.16,VWS V14.00,2013-04-17 12:46:00,
2013-04-17 07:51:00,40.8,40.0,28.38,NNW,341,3.1,3.1,97,0.00,,---,0.16,VWS V14.00,2013-04-17 12:51:00,
2013-04-17 07:56:00,40.8,40.0,28.38,North,353,2.7,6.3,97,0.00,,---,0.16,VWS V14.00,2013-04-17 12:56:00,
2013-04-17 08:01:00,41.0,40.2,28.38,NW,306,3.1,3.1,97,0.00,,---,0.16,VWS V14.00,2013-04-17 13:01:00,
2013-04-17 08:06:00,41.0,40.2,28.38,North,0,0.0,5.8,97,0.00,,---,0.16,VWS V14.00,2013-04-17 13:06:00,
2013-04-17 08:11:00,41.0,40.2,28.38,North,353,2.2,3.1,97,0.00,,---,0.16,VWS V14.00,2013-04-17 13:11:00,
2013-04-17 08:16:00,40.8,40.0,28.38,North,353,3.6,3.6,97,0.00,,---,0.16,VWS V14.00,2013-04-17 13:16:00,
2013-04-17 08:21:00,40.8,40.0,28.35,North,353,0.0,2.7,97,0.00,,---,0.16,VWS V14.00,2013-04-17 13:21:00,
2013-04-17 08:26:00,40.8,40.0,28.35,NNW,341,2.7,5.4,97,0.00,,---,0.16,VWS V14.00,2013-04-17 13:26:00,
2013-04-17 08:31:00,40.8,40.0,28.35,NNW,332,2.7,3.1,97,0.00,,---,0.16,VWS V14.00,2013-04-17 13:31:00,
2013-04-17 08:36:00,41.0,40.2,28.38,North,357,2.7,2.7,97,0.00,,---,0.16,VWS V14.00,2013-04-17 13:36:00,
2013-04-17 08:41:00,41.0,40.2,28.38,North,353,4.9,4.9,97,0.00,,---,0.16,VWS V14.00,2013-04-17 13:41:00,
2013-04-17 08:47:00,41.0,40.2,28.38,North,353,5.4,5.8,97,0.04,,---,0.20,VWS V14.00,2013-04-17 13:47:00,
2013-04-17 08:52:00,41.0,40.2,28.38,NW,324,0.0,0.0,97,0.04,,---,0.20,VWS V14.00,2013-04-17 13:52:00,
2013-04-17 08:57:00,41.0,40.2,28.38,NW,304,0.0,3.6,97,0.04,,---,0.20,VWS V14.00,2013-04-17 13:57:00,
2013-04-17 09:02:00,41.2,40.4,28.38,NNW,333,2.2,3.1,97,0.04,,---,0.20,VWS V14.00,2013-04-17 14:02:00,
2013-04-17 09:07:00,41.2,40.4,28.38,NNW,342,2.7,2.7,97,0.04,,---,0.20,VWS V14.00,2013-04-17 14:07:00,
2013-04-17 09:12:00,41.2,40.4,28.38,NNE,15,3.1,4.0,97,0.04,,---,0.20,VWS V14.00,2013-04-17 14:12:00,
2013-04-17 09:17:00,41.4,40.6,28.38,North,4,3.1,3.6,97,0.04,,---,0.20,VWS V14.00,2013-04-17 14:17:00,
2013-04-17 09:22:00,41.5,41.0,28.38,North,0,4.9,5.8,98,0.04,,---,0.20,VWS V14.00,2013-04-17 14:22:00,
2013-04-17 09:27:00,41.5,41.0,28.38,NNW,345,0.0,4.0,98,0.04,,---,0.20,VWS V14.00,2013-04-17 14:27:00,
2013-04-17 09:32:00,41.5,41.0,28.38,North,353,2.7,4.9,98,0.04,,---,0.20,VWS V14.00,2013-04-17 14:32:00,
2013-04-17 09:38:00,41.7,41.2,28.38,NW,321,0.0,0.0,98,0.04,,---,0.20,VWS V14.00,2013-04-17 14:38:00,
2013-04-17 09:43:00,41.7,41.2,28.38,NNE,17,2.7,3.6,98,0.04,,---,0.20,VWS V14.00,2013-04-17 14:43:00,
2013-04-17 09:48:00,41.7,41.2,28.38,North,1,5.4,5.4,98,0.00,,---,0.20,VWS V14.00,2013-04-17 14:48:00,
2013-04-17 09:53:00,41.9,41.4,28.35,NNE,29,2.2,3.6,98,0.00,,---,0.20,VWS V14.00,2013-04-17 14:53:00,
2013-04-17 09:58:00,41.9,41.4,28.35,North,0,4.0,4.0,98,0.00,,---,0.20,VWS V14.00,2013-04-17 14:58:00,
2013-04-17 10:03:00,42.1,41.6,28.35,NNE,19,3.1,3.6,98,0.00,,---,0.20,VWS V14.00,2013-04-17 15:03:00,
2013-04-17 10:08:00,42.1,41.6,28.35,NNE,30,2.2,3.6,98,0.00,,---,0.20,VWS V14.00,2013-04-17 15:08:00,
2013-04-17 10:13:00,42.1,41.6,28.35,NNE,17,3.1,5.8,98,0.00,,---,0.20,VWS V14.00,2013-04-17 15:13:00,
2013-04-17 10:18:00,42.1,41.6,28.35,NNE,20,2.7,4.0,98,0.00,,---,0.20,VWS V14.00,2013-04-17 15:18:00,
2013-04-17 10:23:00,42.3,41.7,28.35,NNE,27,3.6,3.6,98,0.00,,---,0.20,VWS V14.00,2013-04-17 15:23:00,
2013-04-17 10:28:00,42.4,41.9,28.35,NNE,17,2.7,2.7,98,0.00,,---,0.20,VWS V14.00,2013-04-17 15:28:00,
2013-04-17 10:33:00,42.4,41.9,28.35,NNE,17,4.0,4.0,98,0.00,,---,0.20,VWS V14.00,2013-04-17 15:33:00,
2013-04-17 10:38:00,42.6,42.1,28.35,North,8,2.2,3.1,98,0.00,,---,0.20,VWS V14.00,2013-04-17 15:38:00,
2013-04-17 10:43:00,43.0,42.5,28.35,NNE,12,4.0,4.0,98,0.00,,---,0.20,VWS V14.00,2013-04-17 15:43:00,
2013-04-17 10:48:00,43.2,42.6,28.35,NNE,30,3.6,3.6,98,0.00,,---,0.20,VWS V14.00,2013-04-17 15:48:00,
2013-04-17 10:53:00,43.3,42.8,28.35,NE,39,6.3,6.3,98,0.00,,---,0.20,VWS V14.00,2013-04-17 15:53:00,
2013-04-17 10:58:00,43.5,43.0,28.35,NNE,32,0.0,7.6,98,0.00,,---,0.20,VWS V14.00,2013-04-17 15:58:00,
2013-04-17 11:03:00,43.7,43.2,28.35,North,5,2.2,3.6,98,0.00,,---,0.20,VWS V14.00,2013-04-17 16:03:00,
2013-04-17 11:08:00,43.9,43.3,28.35,NNE,15,3.1,4.0,98,0.00,,---,0.20,VWS V14.00,2013-04-17 16:08:00,
2013-04-17 11:14:00,44.1,43.5,28.35,North,0,3.1,5.8,98,0.00,,---,0.20,VWS V14.00,2013-04-17 16:14:00,
2013-04-17 11:19:00,44.2,43.7,28.35,North,357,3.1,5.8,98,0.00,,---,0.20,VWS V14.00,2013-04-17 16:19:00,
2013-04-17 11:24:00,44.1,43.5,28.35,North,357,2.7,3.1,98,0.00,,---,0.20,VWS V14.00,2013-04-17 16:24:00,
2013-04-17 11:29:00,44.2,43.7,28.35,North,357,4.0,4.0,98,0.00,,---,0.20,VWS V14.00,2013-04-17 16:29:00,
2013-04-17 11:34:00,44.4,43.9,28.35,North,7,3.6,4.0,98,0.00,,---,0.20,VWS V14.00,2013-04-17 16:34:00,
2013-04-17 11:39:00,44.4,43.9,28.32,NNE,27,2.2,2.7,98,0.00,,---,0.20,VWS V14.00,2013-04-17 16:39:00,
2013-04-17 11:44:00,44.6,44.1,28.32,NNE,22,3.1,3.6,98,0.00,,---,0.20,VWS V14.00,2013-04-17 16:44:00,
2013-04-17 11:49:00,44.8,44.2,28.32,North,357,4.0,4.0,98,0.00,,---,0.20,VWS V14.00,2013-04-17 16:49:00,
2013-04-17 11:54:00,44.8,44.2,28.32,North,3,3.6,3.6,98,0.00,,---,0.20,VWS V14.00,2013-04-17 16:54:00,
2013-04-17 11:59:00,45.1,44.6,28.32,North,353,0.0,0.0,98,0.00,,---,0.20,VWS V14.00,2013-04-17 16:59:00,
2013-04-17 12:04:00,45.3,44.8,28.32,NNE,17,0.0,4.0,98,0.00,,---,0.20,VWS V14.00,2013-04-17 17:04:00,
2013-04-17 12:09:00,45.3,44.8,28.32,North,1,0.0,2.2,98,0.00,,---,0.20,VWS V14.00,2013-04-17 17:09:00,
2013-04-17 12:14:00,45.5,45.0,28.32,North,0,2.7,4.9,98,0.00,,---,0.20,VWS V14.00,2013-04-17 17:14:00,
2013-04-17 12:20:00,45.5,45.0,28.32,North,353,4.0,4.0,98,0.00,,---,0.20,VWS V14.00,2013-04-17 17:20:00,
2013-04-17 12:25:00,45.7,45.2,28.32,North,2,3.6,3.6,98,0.00,,---,0.20,VWS V14.00,2013-04-17 17:25:00,
2013-04-17 12:30:00,45.7,45.2,28.32,North,4,2.7,4.9,98,0.00,,---,0.20,VWS V14.00,2013-04-17 17:30:00,
2013-04-17 12:35:00,45.7,45.2,28.29,North,2,3.6,3.6,98,0.00,,---,0.20,VWS V14.00,2013-04-17 17:35:00,
2013-04-17 12:40:00,45.5,44.7,28.29,North,9,2.7,3.1,97,0.00,,---,0.20,VWS V14.00,2013-04-17 17:40:00,
2013-04-17 12:45:00,45.5,44.7,28.29,North,10,3.1,3.1,97,0.00,,---,0.20,VWS V14.00,2013-04-17 17:45:00,
2013-04-17 12:50:00,45.5,44.7,28.29,North,353,0.0,2.7,97,0.00,,---,0.20,VWS V14.00,2013-04-17 17:50:00,
2013-04-17 12:55:00,45.5,44.7,28.29,North,353,0.0,0.0,97,0.00,,---,0.20,VWS V14.00,2013-04-17 17:55:00,
2013-04-17 13:00:00,45.5,44.7,28.29,North,11,2.2,2.7,97,0.00,,---,0.20,VWS V14.00,2013-04-17 18:00:00,
2013-04-17 13:05:00,45.5,44.7,28.29,North,8,0.0,2.2,97,0.00,,---,0.20,VWS V14.00,2013-04-17 18:05:00,
2013-04-17 13:10:00,45.3,44.5,28.29,WNW,302,2.7,2.7,97,0.00,,---,0.20,VWS V14.00,2013-04-17 18:10:00,
2013-04-17 13:15:00,45.3,44.5,28.29,North,5,0.0,2.2,97,0.00,,---,0.20,VWS V14.00,2013-04-17 18:15:00,
2013-04-17 13:20:00,45.3,44.5,28.29,NW,309,2.2,2.2,97,0.00,,---,0.20,VWS V14.00,2013-04-17 18:20:00,
2013-04-17 13:25:00,45.5,44.4,28.29,North,4,2.7,3.6,96,0.00,,---,0.20,VWS V14.00,2013-04-17 18:25:00,
2013-04-17 13:30:00,45.5,44.4,28.29,North,0,0.0,2.2,96,0.00,,---,0.20,VWS V14.00,2013-04-17 18:30:00,
2013-04-17 13:35:00,45.3,44.2,28.26,NNW,336,0.0,2.7,96,0.00,,---,0.20,VWS V14.00,2013-04-17 18:35:00,
2013-04-17 13:40:00,45.5,44.4,28.26,NW,322,2.2,3.1,96,0.00,,---,0.20,VWS V14.00,2013-04-17 18:40:00,
2013-04-17 13:46:00,45.5,44.4,28.26,NNW,339,2.7,3.1,96,0.00,,---,0.20,VWS V14.00,2013-04-17 18:46:00,
2013-04-17 13:51:00,45.5,44.4,28.26,North,353,4.0,5.4,96,0.00,,---,0.20,VWS V14.00,2013-04-17 18:51:00,
2013-04-17 13:56:00,45.5,44.4,28.26,NNW,341,3.6,3.6,96,0.00,,---,0.20,VWS V14.00,2013-04-17 18:56:00,
2013-04-17 14:01:00,45.5,44.2,28.26,NNW,338,4.0,4.0,95,0.00,,---,0.20,VWS V14.00,2013-04-17 19:01:00,
2013-04-17 14:06:00,45.3,44.0,28.26,North,357,2.2,4.0,95,0.00,,---,0.20,VWS V14.00,2013-04-17 19:06:00,
2013-04-17 14:11:00,45.1,43.8,28.26,NW,324,4.0,4.0,95,0.00,,---,0.20,VWS V14.00,2013-04-17 19:11:00,
2013-04-17 14:16:00,45.1,43.8,28.26,NW,310,2.7,3.6,95,0.00,,---,0.20,VWS V14.00,2013-04-17 19:16:00,
2013-04-17 14:21:00,45.0,43.3,28.26,NNW,333,3.1,3.1,94,0.00,,---,0.20,VWS V14.00,2013-04-17 19:21:00,
2013-04-17 14:26:00,44.8,43.2,28.26,North,5,2.7,2.7,94,0.00,,---,0.20,VWS V14.00,2013-04-17 19:26:00,
2013-04-17 14:31:00,44.8,43.2,28.26,NW,318,2.2,3.6,94,0.00,,---,0.20,VWS V14.00,2013-04-17 19:31:00,
2013-04-17 14:36:00,44.8,43.2,28.23,NNW,330,2.2,3.6,94,0.00,,---,0.20,VWS V14.00,2013-04-17 19:36:00,
2013-04-17 14:42:00,44.8,43.2,28.23,North,0,0.0,2.2,94,0.00,,---,0.20,VWS V14.00,2013-04-17 19:42:00,
2013-04-17 14:47:00,44.6,43.0,28.23,NW,318,0.0,5.8,94,0.00,,---,0.20,VWS V14.00,2013-04-17 19:47:00,
2013-04-17 14:52:00,44.1,42.5,28.23,NNW,339,2.7,4.9,94,0.00,,---,0.20,VWS V14.00,2013-04-17 19:52:00,
2013-04-17 14:57:00,43.9,42.3,28.23,NW,318,5.8,5.8,94,0.00,,---,0.20,VWS V14.00,2013-04-17 19:57:00,
2013-04-17 15:02:00,43.7,42.1,28.23,NW,316,3.1,4.9,94,0.00,,---,0.20,VWS V14.00,2013-04-17 20:02:00,
2013-04-17 15:07:00,43.5,41.9,28.26,WNW,301,3.6,3.6,94,0.00,,---,0.20,VWS V14.00,2013-04-17 20:07:00,
2013-04-17 15:12:00,43.5,42.2,28.26,SSW,194,0.0,0.0,95,0.00,,---,0.20,VWS V14.00,2013-04-17 20:12:00,
2013-04-17 15:17:00,43.5,42.2,28.26,NNE,24,5.8,5.8,95,0.20,,---,0.39,VWS V14.00,2013-04-17 20:17:00,
2013-04-17 15:22:00,43.0,41.7,28.17,NNW,336,5.8,6.3,95,0.28,,---,0.47,VWS V14.00,2013-04-17 20:22:00,
2013-04-17 15:27:00,42.8,41.5,28.17,NE,37,6.3,8.1,95,0.35,,---,0.55,VWS V14.00,2013-04-17 20:27:00,
2013-04-17 15:32:00,42.6,41.3,28.17,NNE,22,0.0,6.3,95,0.39,,---,0.59,VWS V14.00,2013-04-17 20:32:00,
2013-04-17 15:37:00,42.6,41.6,28.20,WNW,283,0.0,4.0,96,0.39,,---,0.59,VWS V14.00,2013-04-17 20:37:00,
2013-04-17 15:42:00,42.6,41.6,28.20,West,265,3.6,3.6,96,0.39,,---,0.59,VWS V14.00,2013-04-17 20:42:00,
2013-04-17 15:47:00,42.6,41.6,28.20,NW,323,3.6,4.0,96,0.39,,---,0.59,VWS V14.00,2013-04-17 20:47:00,
2013-04-17 15:53:00,42.6,41.6,28.26,West,265,2.7,2.7,96,0.39,,---,0.59,VWS V14.00,2013-04-17 20:53:00,
2013-04-17 15:58:00,42.6,41.6,28.26,NE,40,3.1,4.0,96,0.39,,---,0.59,VWS V14.00,2013-04-17 20:58:00,
2013-04-17 16:03:00,42.6,41.8,28.26,SW,221,4.9,6.3,97,0.39,,---,0.59,VWS V14.00,2013-04-17 21:03:00,
2013-04-17 16:08:00,42.6,41.8,28.23,West,280,2.7,5.4,97,0.39,,---,0.59,VWS V14.00,2013-04-17 21:08:00,
2013-04-17 16:13:00,42.6,41.8,28.23,West,280,5.8,8.3,97,0.43,,---,0.63,VWS V14.00,2013-04-17 21:13:00,
2013-04-17 16:18:00,42.6,41.8,28.23,NW,321,2.7,2.7,97,0.20,,---,0.63,VWS V14.00,2013-04-17 21:18:00,
2013-04-17 16:23:00,42.6,41.8,28.14,WSW,239,3.6,3.6,97,0.12,,---,0.63,VWS V14.00,2013-04-17 21:23:00,
2013-04-17 16:28:00,42.6,41.8,28.14,NW,315,6.3,6.3,97,0.08,,---,0.63,VWS V14.00,2013-04-17 21:28:00,
2013-04-17 16:33:00,42.4,41.7,28.14,WNW,296,3.1,3.1,97,0.04,,---,0.63,VWS V14.00,2013-04-17 21:33:00,
2013-04-17 16:38:00,42.3,41.5,28.23,NNW,341,6.3,6.3,97,0.04,,---,0.63,VWS V14.00,2013-04-17 21:38:00,
2013-04-17 16:43:00,42.1,41.3,28.23,NW,319,6.3,6.3,97,0.04,,---,0.63,VWS V14.00,2013-04-17 21:43:00,
2013-04-17 16:48:00,41.9,41.1,28.23,NNW,342,6.3,6.3,97,0.04,,---,0.63,VWS V14.00,2013-04-17 21:48:00,
2013-04-17 16:53:00,41.7,40.9,28.23,NW,323,7.6,8.3,97,0.04,,---,0.63,VWS V14.00,2013-04-17 21:53:00,
2013-04-17 16:58:00,41.9,41.1,28.23,NNW,330,3.6,3.6,97,0.04,,---,0.63,VWS V14.00,2013-04-17 21:58:00,
2013-04-17 17:03:00,42.1,41.6,28.23,NNW,333,3.6,6.3,98,0.04,,---,0.63,VWS V14.00,2013-04-17 22:03:00,
2013-04-17 17:09:00,42.3,41.7,28.23,WNW,290,4.5,4.5,98,0.04,,---,0.63,VWS V14.00,2013-04-17 22:09:00,
2013-04-17 17:14:00,42.1,41.6,28.23,NW,307,4.0,4.0,98,0.00,,---,0.63,VWS V14.00,2013-04-17 22:14:00,
2013-04-17 17:19:00,42.1,41.6,28.23,NW,306,3.1,4.0,98,0.00,,---,0.63,VWS V14.00,2013-04-17 22:19:00,
2013-04-17 17:24:00,42.1,41.6,28.23,WNW,287,4.0,4.0,98,0.00,,---,0.63,VWS V14.00,2013-04-17 22:24:00,
2013-04-17 17:29:00,42.1,41.6,28.23,NW,308,4.9,4.9,98,0.00,,---,0.63,VWS V14.00,2013-04-17 22:29:00,
2013-04-17 17:34:00,42.1,41.3,28.23,NW,307,3.1,3.1,97,0.00,,---,0.63,VWS V14.00,2013-04-17 22:34:00,
2013-04-17 17:39:00,42.1,41.3,28.23,NW,325,4.0,4.0,97,0.00,,---,0.63,VWS V14.00,2013-04-17 22:39:00,
2013-04-17 17:44:00,42.1,41.3,28.23,North,353,3.6,3.6,97,0.00,,---,0.63,VWS V14.00,2013-04-17 22:44:00,
2013-04-17 17:49:00,42.3,41.5,28.23,NW,318,3.6,4.0,97,0.00,,---,0.63,VWS V14.00,2013-04-17 22:49:00,
2013-04-17 17:54:00,42.1,41.3,28.23,NW,322,5.4,5.4,97,0.00,,---,0.63,VWS V14.00,2013-04-17 22:54:00,
2013-04-17 17:59:00,42.1,41.3,28.23,NW,314,4.0,5.8,97,0.00,,---,0.63,VWS V14.00,2013-04-17 22:59:00,
2013-04-17 18:04:00,42.1,41.3,28.26,NW,307,6.3,6.7,97,0.00,,---,0.63,VWS V14.00,2013-04-17 23:04:00,
2013-04-17 18:09:00,42.1,41.3,28.26,NW,313,3.6,3.6,97,0.00,,---,0.63,VWS V14.00,2013-04-17 23:09:00,
2013-04-17 18:15:00,42.1,41.3,28.26,NW,307,3.6,4.0,97,0.00,,---,0.63,VWS V14.00,2013-04-17 23:15:00,
2013-04-17 18:20:00,42.1,41.3,28.26,NW,316,4.0,4.0,97,0.00,,---,0.63,VWS V14.00,2013-04-17 23:20:00,
2013-04-17 18:25:00,42.1,41.0,28.26,NW,323,0.0,0.0,96,0.00,,---,0.63,VWS V14.00,2013-04-17 23:25:00,
2013-04-17 18:30:00,42.1,41.0,28.26,NNW,335,2.7,3.1,96,0.00,,---,0.63,VWS V14.00,2013-04-17 23:30:00,
2013-04-17 18:35:00,41.9,40.8,28.26,NNW,341,4.0,5.8,96,0.00,,---,0.63,VWS V14.00,2013-04-17 23:35:00,
2013-04-17 18:40:00,41.9,40.8,28.26,NNW,331,4.9,8.3,96,0.00,,---,0.63,VWS V14.00,2013-04-17 23:40:00,
2013-04-17 18:45:00,41.7,40.7,28.26,WNW,289,5.4,5.4,96,0.00,,---,0.63,VWS V14.00,2013-04-17 23:45:00,
2013-04-17 18:50:00,41.7,40.7,28.26,NW,324,3.1,4.0,96,0.00,,---,0.63,VWS V14.00,2013-04-17 23:50:00,
2013-04-17 18:56:00,41.7,40.7,28.26,NW,309,3.1,5.8,96,0.00,,---,0.63,VWS V14.00,2013-04-17 23:56:00,
2013-04-17 19:01:00,41.7,40.7,28.26,NW,326,6.3,10.1,96,0.00,,---,0.63,VWS V14.00,2013-04-18 00:01:00,
2013-04-17 19:06:00,41.5,40.5,28.23,NW,319,3.1,8.7,96,0.00,,---,0.63,VWS V14.00,2013-04-18 00:06:00,
2013-04-17 19:11:00,41.5,40.5,28.23,NW,318,3.6,8.3,96,0.00,,---,0.63,VWS V14.00,2013-04-18 00:11:00,
2013-04-17 19:16:00,41.4,40.3,28.23,NW,312,5.4,8.3,96,0.00,,---,0.63,VWS V14.00,2013-04-18 00:16:00,
2013-04-17 19:21:00,41.2,40.1,28.26,NW,311,2.2,3.6,96,0.00,,---,0.63,VWS V14.00,2013-04-18 00:21:00,
2013-04-17 19:26:00,41.2,40.1,28.26,WNW,301,4.9,5.8,96,0.00,,---,0.63,VWS V14.00,2013-04-18 00:26:00,
2013-04-17 19:31:00,41.2,40.1,28.26,NW,326,3.6,4.9,96,0.00,,---,0.63,VWS V14.00,2013-04-18 00:31:00,
2013-04-17 19:36:00,41.2,40.1,28.23,NNW,345,3.6,5.4,96,0.00,,---,0.63,VWS V14.00,2013-04-18 00:36:00,
2013-04-17 19:41:00,41.2,40.1,28.23,WNW,287,4.5,4.5,96,0.00,,---,0.63,VWS V14.00,2013-04-18 00:41:00,
2013-04-17 19:47:00,41.2,40.1,28.23,WNW,293,4.0,4.0,96,0.00,,---,0.63,VWS V14.00,2013-04-18 00:47:00,
2013-04-17 19:52:00,41.2,40.1,28.23,North,353,8.3,8.3,96,0.00,,---,0.63,VWS V14.00,2013-04-18 00:52:00,
2013-04-17 19:57:00,41.2,40.4,28.23,NNW,329,5.4,7.2,97,0.00,,---,0.63,VWS V14.00,2013-04-18 00:57:00,
2013-04-17 20:02:00,41.2,40.4,28.23,NNW,348,5.8,6.3,97,0.00,,---,0.63,VWS V14.00,2013-04-18 01:02:00,
2013-04-17 20:07:00,41.2,40.4,28.23,NNW,336,4.0,4.0,97,0.00,,---,0.63,VWS V14.00,2013-04-18 01:07:00,
2013-04-17 20:12:00,41.2,40.4,28.23,NW,323,6.3,6.3,97,0.00,,---,0.63,VWS V14.00,2013-04-18 01:12:00,
2013-04-17 20:17:00,41.0,40.2,28.23,NNW,327,4.9,5.4,97,0.00,,---,0.63,VWS V14.00,2013-04-18 01:17:00,
2013-04-17 20:22:00,41.0,40.2,28.23,NNW,327,5.8,6.3,97,0.00,,---,0.63,VWS V14.00,2013-04-18 01:22:00,
2013-04-17 20:27:00,41.0,40.2,28.23,NNW,337,5.8,5.8,97,0.00,,---,0.63,VWS V14.00,2013-04-18 01:27:00,
2013-04-17 20:32:00,40.8,40.3,28.23,NW,321,2.7,5.4,98,0.00,,---,0.63,VWS V14.00,2013-04-18 01:32:00,
2013-04-17 20:37:00,40.8,40.3,28.20,NW,326,5.4,5.4,98,0.00,,---,0.63,VWS V14.00,2013-04-18 01:37:00,
2013-04-17 20:42:00,40.8,40.3,28.20,NW,326,6.3,6.3,98,0.00,,---,0.63,VWS V14.00,2013-04-18 01:42:00,
2013-04-17 20:47:00,40.6,40.1,28.20,NNW,327,6.3,6.3,98,0.00,,---,0.63,VWS V14.00,2013-04-18 01:47:00,
2013-04-17 20:52:00,40.6,40.1,28.20,NNW,341,6.3,6.3,98,0.00,,---,0.63,VWS V14.00,2013-04-18 01:52:00,
2013-04-17 20:58:00,40.5,39.9,28.20,NW,326,6.3,6.3,98,0.00,,---,0.63,VWS V14.00,2013-04-18 01:58:00,
2013-04-17 21:03:00,40.5,39.9,28.20,NNW,335,3.1,4.9,98,0.00,,---,0.63,VWS V14.00,2013-04-18 02:03:00,
2013-04-17 21:08:00,40.5,39.9,28.20,NW,305,2.7,5.4,98,0.00,,---,0.63,VWS V14.00,2013-04-18 02:08:00,
2013-04-17 21:13:00,40.5,39.9,28.20,NW,323,6.7,10.5,98,0.00,,---,0.63,VWS V14.00,2013-04-18 02:13:00,
2013-04-17 21:18:00,40.5,39.9,28.20,North,349,4.0,5.8,98,0.00,,---,0.63,VWS V14.00,2013-04-18 02:18:00,
2013-04-17 21:23:00,40.5,39.9,28.17,NW,317,8.7,8.7,98,0.00,,---,0.63,VWS V14.00,2013-04-18 02:23:00,
2013-04-17 21:28:00,40.5,39.7,28.17,NNW,340,6.3,6.3,97,0.00,,---,0.63,VWS V14.00,2013-04-18 02:28:00,
2013-04-17 21:33:00,40.5,39.7,28.17,NW,305,4.0,6.3,97,0.00,,---,0.63,VWS V14.00,2013-04-18 02:33:00,
2013-04-17 21:38:00,40.5,39.7,28.26,NNW,335,3.6,5.4,97,0.00,,---,0.63,VWS V14.00,2013-04-18 02:38:00,
2013-04-17 21:43:00,40.5,39.7,28.26,NW,316,5.4,5.8,97,0.00,,---,0.63,VWS V14.00,2013-04-18 02:43:00,
2013-04-17 21:48:00,40.5,39.7,28.26,North,0,3.6,5.8,97,0.00,,---,0.63,VWS V14.00,2013-04-18 02:48:00,
2013-04-17 21:53:00,40.5,39.7,28.20,NNW,329,5.4,6.3,97,0.00,,---,0.63,VWS V14.00,2013-04-18 02:53:00,
2013-04-17 21:59:00,40.5,39.4,28.20,North,357,5.8,5.8,96,0.04,,---,0.67,VWS V14.00,2013-04-18 02:59:00,
2013-04-17 22:04:00,40.5,39.4,28.20,WNW,302,6.3,6.3,96,0.04,,---,0.67,VWS V14.00,2013-04-18 03:04:00,
2013-04-17 22:09:00,40.3,39.2,28.26,NNW,331,5.8,8.1,96,0.04,,---,0.67,VWS V14.00,2013-04-18 03:09:00,
2013-04-17 22:14:00,40.1,39.0,28.26,NW,321,4.0,8.1,96,0.04,,---,0.67,VWS V14.00,2013-04-18 03:14:00,
2013-04-17 22:19:00,40.1,39.0,28.26,WNW,300,3.1,4.0,96,0.04,,---,0.67,VWS V14.00,2013-04-18 03:19:00,
2013-04-17 22:24:00,39.9,38.9,28.23,NW,325,3.1,3.1,96,0.08,,---,0.71,VWS V14.00,2013-04-18 03:24:00,
2013-04-17 22:29:00,39.7,38.4,28.23,NNW,335,3.6,3.6,95,0.12,,---,0.75,VWS V14.00,2013-04-18 03:29:00,
2013-04-17 22:34:00,39.7,38.4,28.23,NW,323,5.4,5.4,95,0.12,,---,0.75,VWS V14.00,2013-04-18 03:34:00,
2013-04-17 22:39:00,39.7,38.4,28.23,NNW,333,3.6,4.9,95,0.12,,---,0.75,VWS V14.00,2013-04-18 03:39:00,
2013-04-17 22:44:00,39.7,38.4,28.23,NNW,338,3.6,5.4,95,0.12,,---,0.75,VWS V14.00,2013-04-18 03:44:00,
2013-04-17 22:49:00,39.6,38.2,28.23,NNW,342,4.9,8.3,95,0.12,,---,0.75,VWS V14.00,2013-04-18 03:49:00,
2013-04-17 22:54:00,39.4,38.1,28.23,NNW,338,3.1,4.5,95,0.12,,---,0.75,VWS V14.00,2013-04-18 03:54:00,
2013-04-17 22:59:00,39.2,37.9,28.23,NW,315,2.7,3.6,95,0.08,,---,0.75,VWS V14.00,2013-04-18 03:59:00,
2013-04-17 23:01:00,39.2,37.9,28.23,NNW,335,6.3,6.3,95,0.08,,---,0.75,VWS V14.00,2013-04-18 04:01:00,
2013-04-17 23:02:00,39.2,37.9,28.23,North,0,9.2,9.2,95,0.08,,---,0.75,VWS V14.00,2013-04-18 04:02:00,
2013-04-17 23:07:00,39.2,37.9,28.23,NW,317,4.0,4.0,95,0.08,,---,0.75,VWS V14.00,2013-04-18 04:07:00,
2013-04-17 23:12:00,39.2,37.9,28.23,NW,314,0.0,4.0,95,0.08,,---,0.75,VWS V14.00,2013-04-18 04:12:00,
2013-04-17 23:17:00,39.2,37.9,28.23,NW,324,6.3,9.2,95,0.08,,---,0.75,VWS V14.00,2013-04-18 04:17:00,
2013-04-17 23:22:00,39.0,38.0,28.26,NNW,330,4.0,5.4,96,0.04,,---,0.75,VWS V14.00,2013-04-18 04:22:00,
2013-04-17 23:27:00,39.0,38.0,28.26,NW,317,7.6,8.1,96,0.00,,---,0.75,VWS V14.00,2013-04-18 04:27:00,
2013-04-17 23:32:00,38.8,37.8,28.26,NW,304,3.6,4.0,96,0.00,,---,0.75,VWS V14.00,2013-04-18 04:32:00,
2013-04-17 23:37:00,38.8,37.8,28.26,NNW,343,3.1,6.3,96,0.00,,---,0.75,VWS V14.00,2013-04-18 04:37:00,
2013-04-17 23:42:00,38.8,37.8,28.26,NW,324,5.4,10.5,96,0.00,,---,0.75,VWS V14.00,2013-04-18 04:42:00,
2013-04-17 23:47:00,38.8,37.8,28.26,NW,323,3.1,5.8,96,0.04,,---,0.79,VWS V14.00,2013-04-18 04:47:00,
2013-04-17 23:53:00,38.8,37.8,28.20,NNW,339,0.0,3.6,96,0.04,,---,0.79,VWS V14.00,2013-04-18 04:53:00,
2013-04-17 23:58:00,38.8,37.8,28.20,NNW,327,8.1,8.3,96,0.04,,---,0.79,VWS V14.00,2013-04-18 04:58:00,